User: anonymous   Login
Location: Unspecified
(0.0000°N, 0.0000°E)
Time: 19:22:17
(UTC+00:00)
Language:

OFEQ 10 - Orbit

View from above orbital plane
View from above orbital plane
View from above satellite
View from above satellite

Ground track
Ground track

The orbit data is extracted from the following two-line orbital elements,

1 39650U 14019A   19048.15937933 0.00000000  00000-0  00000-0 0    03
2 39650 140.9177 322.5131 0003996 230.8148 129.1845 15.16853085    06
Epoch (UTC): 17 February 2019 03:49:30
Eccentricity: 0.0003996
inclination: 140.9177°
perigee height: 512 km
apogee height: 518 km
right ascension of ascending node: 322.5131°
argument of perigee: 230.8148°
revolutions per day: 15.16853085
mean anomaly at epoch: 129.1845°
orbit number at epoch: 0

The dashed part of the orbit path shows where the satellite is in the earth's shadow,  

DLR